Year,Month,Day,Hour,Minute,Value (Times are PST for temperature in C)
2013,03,28,00,00,5.60
2013,03,28,00,01,5.50
2013,03,28,00,02,5.50
2013,03,28,00,03,5.50
2013,03,28,00,04,5.50
2013,03,28,00,05,5.50
2013,03,28,00,06,5.60
2013,03,28,00,07,5.60
2013,03,28,00,08,5.60
2013,03,28,00,09,5.70
2013,03,28,00,10,5.70
2013,03,28,00,11,5.70
2013,03,28,00,12,5.70
2013,03,28,00,13,5.70
2013,03,28,00,14,5.70
2013,03,28,00,15,5.70
2013,03,28,00,16,5.70
2013,03,28,00,17,5.70
2013,03,28,00,18,5.70
2013,03,28,00,19,5.60
2013,03,28,00,20,5.60
2013,03,28,00,21,5.60
2013,03,28,00,22,5.50
2013,03,28,00,23,5.50
2013,03,28,00,24,5.40
2013,03,28,00,25,5.40
2013,03,28,00,26,5.40
2013,03,28,00,27,5.30
2013,03,28,00,28,5.30
2013,03,28,00,29,5.30
2013,03,28,00,30,5.30
2013,03,28,00,31,5.30
2013,03,28,00,32,5.30
2013,03,28,00,33,5.20
2013,03,28,00,34,5.20
2013,03,28,00,35,5.20
2013,03,28,00,36,5.20
2013,03,28,00,37,5.20
2013,03,28,00,38,5.20
2013,03,28,00,39,5.30
2013,03,28,00,40,5.30
2013,03,28,00,41,5.30
2013,03,28,00,42,5.30
2013,03,28,00,43,5.30
2013,03,28,00,44,5.30
2013,03,28,00,45,5.40
2013,03,28,00,46,5.40
2013,03,28,00,47,5.40
2013,03,28,00,48,5.40
2013,03,28,00,49,5.50
2013,03,28,00,50,5.50
2013,03,28,00,51,5.50
2013,03,28,00,52,5.50
2013,03,28,00,53,5.40
2013,03,28,00,54,5.40
2013,03,28,00,55,5.40
2013,03,28,00,56,5.40
2013,03,28,00,57,5.50
2013,03,28,00,58,5.50
2013,03,28,00,59,5.50
2013,03,28,01,00,5.50
2013,03,28,01,01,5.50
2013,03,28,01,02,5.40
2013,03,28,01,03,5.40
2013,03,28,01,04,5.40
2013,03,28,01,05,5.50
2013,03,28,01,06,5.50
2013,03,28,01,07,5.50
2013,03,28,01,08,5.50
2013,03,28,01,09,5.50
2013,03,28,01,10,5.50
2013,03,28,01,11,5.50
2013,03,28,01,12,5.50
2013,03,28,01,13,5.50
2013,03,28,01,14,5.50
2013,03,28,01,15,5.50
2013,03,28,01,16,5.50
2013,03,28,01,17,5.50
2013,03,28,01,18,5.40
2013,03,28,01,19,5.40
2013,03,28,01,20,5.40
2013,03,28,01,21,5.40
2013,03,28,01,22,5.40
2013,03,28,01,23,5.40
2013,03,28,01,24,5.40
2013,03,28,01,25,5.40
2013,03,28,01,26,5.40
2013,03,28,01,27,5.40
2013,03,28,01,28,5.40
2013,03,28,01,29,5.40
2013,03,28,01,30,5.40
2013,03,28,01,31,5.40
2013,03,28,01,32,5.40
2013,03,28,01,33,5.40
2013,03,28,01,34,5.40
2013,03,28,01,35,5.40
2013,03,28,01,36,5.40
2013,03,28,01,37,5.40
2013,03,28,01,38,5.40
2013,03,28,01,39,5.40
2013,03,28,01,40,5.40
2013,03,28,01,41,5.40
2013,03,28,01,42,5.40
2013,03,28,01,43,5.40
2013,03,28,01,44,5.40
2013,03,28,01,45,5.40
2013,03,28,01,46,5.40
2013,03,28,01,47,5.40
2013,03,28,01,48,5.40
2013,03,28,01,49,5.40
2013,03,28,01,50,5.40
2013,03,28,01,51,5.40
2013,03,28,01,52,5.40
2013,03,28,01,53,5.40
2013,03,28,01,54,5.40
2013,03,28,01,55,5.30
2013,03,28,01,56,5.30
2013,03,28,01,57,5.30
2013,03,28,01,58,5.30
2013,03,28,01,59,5.30
2013,03,28,02,00,5.30
2013,03,28,02,01,5.20
2013,03,28,02,02,5.20
2013,03,28,02,03,5.20
2013,03,28,02,04,5.10
2013,03,28,02,05,5.10
2013,03,28,02,06,5.10
2013,03,28,02,07,5.10
2013,03,28,02,08,5.00
2013,03,28,02,09,4.90
2013,03,28,02,10,4.90
2013,03,28,02,11,4.90
2013,03,28,02,12,4.90
2013,03,28,02,13,4.90
2013,03,28,02,14,4.90
2013,03,28,02,15,4.80
2013,03,28,02,16,4.70
2013,03,28,02,17,4.60
2013,03,28,02,18,4.60
2013,03,28,02,19,4.50
2013,03,28,02,20,4.40
2013,03,28,02,21,4.30
2013,03,28,02,22,4.20
2013,03,28,02,23,4.20
2013,03,28,02,24,4.10
2013,03,28,02,25,4.10
2013,03,28,02,26,4.00
2013,03,28,02,27,4.00
2013,03,28,02,28,4.00
2013,03,28,02,29,4.00
2013,03,28,02,30,4.00
2013,03,28,02,31,4.00
2013,03,28,02,32,4.00
2013,03,28,02,33,4.00
2013,03,28,02,34,4.00
2013,03,28,02,35,4.00
2013,03,28,02,36,4.00
2013,03,28,02,37,3.90
2013,03,28,02,38,3.90
2013,03,28,02,39,3.90
2013,03,28,02,40,3.90
2013,03,28,02,41,3.80
2013,03,28,02,42,3.80
2013,03,28,02,43,3.80
2013,03,28,02,44,3.80
2013,03,28,02,45,3.80
2013,03,28,02,46,3.80
2013,03,28,02,47,3.80
2013,03,28,02,48,3.80
2013,03,28,02,49,3.80
2013,03,28,02,50,3.80
2013,03,28,02,51,3.80
2013,03,28,02,52,3.80
2013,03,28,02,53,3.80
2013,03,28,02,54,3.80
2013,03,28,02,55,3.80
2013,03,28,02,56,3.80
2013,03,28,02,57,3.80
2013,03,28,02,58,3.90
2013,03,28,02,59,3.90
2013,03,28,03,00,3.90
2013,03,28,03,01,4.00
2013,03,28,03,02,4.00
2013,03,28,03,03,4.00
2013,03,28,03,04,4.00
2013,03,28,03,05,4.00
2013,03,28,03,06,4.00
2013,03,28,03,07,4.00
2013,03,28,03,08,3.90
2013,03,28,03,09,3.80
2013,03,28,03,10,3.80
2013,03,28,03,11,3.70
2013,03,28,03,12,3.60
2013,03,28,03,13,3.50
2013,03,28,03,14,3.50
2013,03,28,03,15,3.50
2013,03,28,03,16,3.40
2013,03,28,03,17,3.30
2013,03,28,03,18,3.30
2013,03,28,03,19,3.30
2013,03,28,03,20,3.20
2013,03,28,03,21,3.20
2013,03,28,03,22,3.10
2013,03,28,03,23,3.10
2013,03,28,03,24,3.00
2013,03,28,03,25,2.90
2013,03,28,03,26,2.90
2013,03,28,03,27,2.80
2013,03,28,03,28,2.80
2013,03,28,03,29,2.80
2013,03,28,03,30,2.80
2013,03,28,03,31,2.80
2013,03,28,03,32,2.80
2013,03,28,03,33,2.80
2013,03,28,03,34,2.90
2013,03,28,03,35,2.90
2013,03,28,03,36,2.90
2013,03,28,03,37,2.90
2013,03,28,03,38,2.90
2013,03,28,03,39,2.90
2013,03,28,03,40,2.90
2013,03,28,03,41,2.90
2013,03,28,03,42,2.80
2013,03,28,03,43,2.80
2013,03,28,03,44,2.80
2013,03,28,03,45,2.80
2013,03,28,03,46,2.80
2013,03,28,03,47,2.70
2013,03,28,03,48,2.70
2013,03,28,03,49,2.70
2013,03,28,03,50,2.80
2013,03,28,03,51,2.80
2013,03,28,03,52,2.80
2013,03,28,03,53,2.80
2013,03,28,03,54,2.90
2013,03,28,03,55,2.90
2013,03,28,03,56,2.90
2013,03,28,03,57,3.00
2013,03,28,03,58,3.10
2013,03,28,03,59,3.10
2013,03,28,04,00,3.10
2013,03,28,04,01,3.10
2013,03,28,04,02,3.10
2013,03,28,04,03,3.10
2013,03,28,04,04,3.00
2013,03,28,04,05,2.90
2013,03,28,04,06,2.90
2013,03,28,04,07,2.90
2013,03,28,04,08,2.80
2013,03,28,04,09,2.80
2013,03,28,04,10,2.70
2013,03,28,04,11,2.70
2013,03,28,04,12,2.70
2013,03,28,04,13,2.70
2013,03,28,04,14,2.70
2013,03,28,04,15,2.80
2013,03,28,04,16,2.80
2013,03,28,04,17,2.80
2013,03,28,04,18,2.90
2013,03,28,04,19,2.90
2013,03,28,04,20,2.90
2013,03,28,04,21,2.90
2013,03,28,04,22,2.90
2013,03,28,04,23,2.90
2013,03,28,04,24,2.90
2013,03,28,04,25,2.90
2013,03,28,04,26,2.90
2013,03,28,04,27,2.90
2013,03,28,04,28,2.90
2013,03,28,04,29,2.90
2013,03,28,04,30,2.90
2013,03,28,04,31,2.90
2013,03,28,04,32,2.90
2013,03,28,04,33,3.00
2013,03,28,04,34,3.10
2013,03,28,04,35,3.10
2013,03,28,04,36,3.10
2013,03,28,04,37,3.10
2013,03,28,04,38,3.20
2013,03,28,04,39,3.20
2013,03,28,04,40,3.20
2013,03,28,04,41,3.20
2013,03,28,04,42,3.20
2013,03,28,04,43,3.20
2013,03,28,04,44,3.30
2013,03,28,04,45,3.30
2013,03,28,04,46,3.30
2013,03,28,04,47,3.30
2013,03,28,04,48,3.30
2013,03,28,04,49,3.30
2013,03,28,04,50,3.30
2013,03,28,04,51,3.30
2013,03,28,04,52,3.40
2013,03,28,04,53,3.40
2013,03,28,04,54,3.40
2013,03,28,04,55,3.40
2013,03,28,04,56,3.50
2013,03,28,04,57,3.50
2013,03,28,04,58,3.60
2013,03,28,04,59,3.60
2013,03,28,05,00,3.70
2013,03,28,05,01,3.80
2013,03,28,05,02,3.80
2013,03,28,05,03,3.90
2013,03,28,05,04,3.90
2013,03,28,05,05,4.00
2013,03,28,05,06,4.00
2013,03,28,05,07,4.00
2013,03,28,05,08,4.10
2013,03,28,05,09,4.00
2013,03,28,05,10,4.00
2013,03,28,05,11,3.90
2013,03,28,05,12,3.80
2013,03,28,05,13,3.70
2013,03,28,05,14,3.60
2013,03,28,05,15,3.60
2013,03,28,05,16,3.50
2013,03,28,05,17,3.50
2013,03,28,05,18,3.40
2013,03,28,05,19,3.40
2013,03,28,05,20,3.40
2013,03,28,05,21,3.40
2013,03,28,05,22,3.40
2013,03,28,05,23,3.30
2013,03,28,05,24,3.30
2013,03,28,05,25,3.30
2013,03,28,05,26,3.30
2013,03,28,05,27,3.30
2013,03,28,05,28,3.30
2013,03,28,05,29,3.30
2013,03,28,05,30,3.30
2013,03,28,05,31,3.30
2013,03,28,05,32,3.30
2013,03,28,05,33,3.30
2013,03,28,05,34,3.30
2013,03,28,05,35,3.30
2013,03,28,05,36,3.30
2013,03,28,05,37,3.40
2013,03,28,05,38,3.40
2013,03,28,05,39,3.40
2013,03,28,05,40,3.50
2013,03,28,05,41,3.50
2013,03,28,05,42,3.60
2013,03,28,05,43,3.60
2013,03,28,05,44,3.70
2013,03,28,05,45,3.80
2013,03,28,05,46,3.80
2013,03,28,05,47,3.80
2013,03,28,05,48,3.80
2013,03,28,05,49,3.80
2013,03,28,05,50,3.70
2013,03,28,05,51,3.60
2013,03,28,05,52,3.50
2013,03,28,05,53,3.40
2013,03,28,05,54,3.30
2013,03,28,05,55,3.30
2013,03,28,05,56,3.30
2013,03,28,05,57,3.30
2013,03,28,05,58,3.30
2013,03,28,05,59,3.30
2013,03,28,06,00,3.30
2013,03,28,06,01,3.20
2013,03,28,06,02,3.20
2013,03,28,06,03,3.30
2013,03,28,06,04,3.30
2013,03,28,06,05,3.30
2013,03,28,06,06,3.40
2013,03,28,06,07,3.50
2013,03,28,06,08,3.60
2013,03,28,06,09,3.60
2013,03,28,06,10,3.70
2013,03,28,06,11,3.70
2013,03,28,06,12,3.70
2013,03,28,06,13,3.70
2013,03,28,06,14,3.70
2013,03,28,06,15,3.70
2013,03,28,06,16,3.80
2013,03,28,06,17,3.80
2013,03,28,06,18,3.80
2013,03,28,06,19,3.80
2013,03,28,06,20,3.90
2013,03,28,06,21,3.90
2013,03,28,06,22,3.90
2013,03,28,06,23,3.80
2013,03,28,06,24,3.80
2013,03,28,06,25,3.80
2013,03,28,06,26,3.80
2013,03,28,06,27,3.70
2013,03,28,06,28,3.70
2013,03,28,06,29,3.70
2013,03,28,06,30,3.70
2013,03,28,06,31,3.60
2013,03,28,06,32,3.60
2013,03,28,06,33,3.60
2013,03,28,06,34,3.60
2013,03,28,06,35,3.60
2013,03,28,06,36,3.60
2013,03,28,06,37,3.60
2013,03,28,06,38,3.60
2013,03,28,06,39,3.60
2013,03,28,06,40,3.60
2013,03,28,06,41,3.60
2013,03,28,06,42,3.60
2013,03,28,06,43,3.60
2013,03,28,06,44,3.70
2013,03,28,06,45,3.70
2013,03,28,06,46,3.70
2013,03,28,06,47,3.80
2013,03,28,06,48,3.80
2013,03,28,06,49,3.90
2013,03,28,06,50,4.00
2013,03,28,06,51,4.00
2013,03,28,06,52,4.10
2013,03,28,06,53,4.20
2013,03,28,06,54,4.20
2013,03,28,06,55,4.20
2013,03,28,06,56,4.30
2013,03,28,06,57,4.30
2013,03,28,06,58,4.40
2013,03,28,06,59,4.50
2013,03,28,07,00,4.50
2013,03,28,07,01,4.60
2013,03,28,07,02,4.60
2013,03,28,07,03,4.60
2013,03,28,07,04,4.60
2013,03,28,07,05,4.60
2013,03,28,07,06,4.60
2013,03,28,07,07,4.60
2013,03,28,07,08,4.60
2013,03,28,07,09,4.60
2013,03,28,07,10,4.60
2013,03,28,07,11,4.60
2013,03,28,07,12,4.60
2013,03,28,07,13,4.60
2013,03,28,07,14,4.60
2013,03,28,07,15,4.70
2013,03,28,07,16,4.70
2013,03,28,07,17,4.70
2013,03,28,07,18,4.80
2013,03,28,07,19,4.80
2013,03,28,07,20,4.80
2013,03,28,07,21,4.90
2013,03,28,07,22,4.90
2013,03,28,07,23,5.00
2013,03,28,07,24,5.10
2013,03,28,07,25,5.10
2013,03,28,07,26,5.20
2013,03,28,07,27,5.20
2013,03,28,07,28,5.30
2013,03,28,07,29,5.30
2013,03,28,07,30,5.30
2013,03,28,07,31,5.30
2013,03,28,07,32,5.30
2013,03,28,07,33,5.40
2013,03,28,07,34,5.30
2013,03,28,07,35,5.30
2013,03,28,07,36,5.30
2013,03,28,07,37,5.30
2013,03,28,07,38,5.30
2013,03,28,07,39,5.20
2013,03,28,07,40,5.20
2013,03,28,07,41,5.20
2013,03,28,07,42,5.20
2013,03,28,07,43,5.20
2013,03,28,07,44,5.20
2013,03,28,07,45,5.20
2013,03,28,07,46,5.20
2013,03,28,07,47,5.20
2013,03,28,07,48,5.20
2013,03,28,07,49,5.20
2013,03,28,07,50,5.30
2013,03,28,07,51,5.30
2013,03,28,07,52,5.30
2013,03,28,07,53,5.30
2013,03,28,07,54,5.30
2013,03,28,07,55,5.30
2013,03,28,07,56,5.30
2013,03,28,07,57,5.40
2013,03,28,07,58,5.40
2013,03,28,07,59,5.40
2013,03,28,08,00,5.50
2013,03,28,08,01,5.60
2013,03,28,08,02,5.60
2013,03,28,08,03,5.70
2013,03,28,08,04,5.80
2013,03,28,08,05,5.90
2013,03,28,08,06,6.00
2013,03,28,08,07,6.10
2013,03,28,08,08,6.10
2013,03,28,08,09,6.20
2013,03,28,08,10,6.20
2013,03,28,08,11,6.20
2013,03,28,08,12,6.30
2013,03,28,08,13,6.30
2013,03,28,08,14,6.40
2013,03,28,08,15,6.40
2013,03,28,08,16,6.40
2013,03,28,08,17,6.40
2013,03,28,08,18,6.50
2013,03,28,08,19,6.60
2013,03,28,08,20,6.60
2013,03,28,08,21,6.60
2013,03,28,08,22,6.60
2013,03,28,08,23,6.60
2013,03,28,08,24,6.60
2013,03,28,08,25,6.60
2013,03,28,08,26,6.70
2013,03,28,08,27,6.70
2013,03,28,08,28,6.70
2013,03,28,08,29,6.70
2013,03,28,08,30,6.70
2013,03,28,08,31,6.70
2013,03,28,08,32,6.80
2013,03,28,08,33,6.80
2013,03,28,08,34,6.80
2013,03,28,08,35,6.80
2013,03,28,08,36,6.80
2013,03,28,08,37,6.80
2013,03,28,08,38,6.80
2013,03,28,08,39,6.80
2013,03,28,08,40,6.80
2013,03,28,08,41,6.80
2013,03,28,08,42,6.80
2013,03,28,08,43,6.80
2013,03,28,08,44,6.90
2013,03,28,08,45,6.90
2013,03,28,08,46,6.90
2013,03,28,08,47,6.90
2013,03,28,08,48,6.90
2013,03,28,08,49,7.00
2013,03,28,08,50,7.00
2013,03,28,08,51,7.00
2013,03,28,08,52,7.00
2013,03,28,08,53,7.00
2013,03,28,08,54,7.00
2013,03,28,08,55,7.00
2013,03,28,08,56,7.00
2013,03,28,08,57,7.00
2013,03,28,08,58,7.00
2013,03,28,08,59,7.00
2013,03,28,09,00,7.00
2013,03,28,09,01,7.00
2013,03,28,09,02,7.00
2013,03,28,09,03,7.00
2013,03,28,09,04,7.00
2013,03,28,09,05,7.00
2013,03,28,09,06,7.00
2013,03,28,09,07,7.00
2013,03,28,09,08,7.00
2013,03,28,09,09,7.00
2013,03,28,09,10,7.00
2013,03,28,09,11,7.10
2013,03,28,09,12,7.10
2013,03,28,09,13,7.10
2013,03,28,09,14,7.10
2013,03,28,09,15,7.10
2013,03,28,09,16,7.10
2013,03,28,09,17,7.10
2013,03,28,09,18,7.20
2013,03,28,09,19,7.20
2013,03,28,09,20,7.20
2013,03,28,09,21,7.20
2013,03,28,09,22,7.30
2013,03,28,09,23,7.30
2013,03,28,09,24,7.30
2013,03,28,09,25,7.30
2013,03,28,09,26,7.30
2013,03,28,09,27,7.30
2013,03,28,09,28,7.30
2013,03,28,09,29,7.30
2013,03,28,09,30,7.30
2013,03,28,09,31,7.30
2013,03,28,09,32,7.30
2013,03,28,09,33,7.30
2013,03,28,09,34,7.30
2013,03,28,09,35,7.30
2013,03,28,09,36,7.30
2013,03,28,09,37,7.40
2013,03,28,09,38,7.40
2013,03,28,09,39,7.40
2013,03,28,09,40,7.40
2013,03,28,09,41,7.40
2013,03,28,09,42,7.50
2013,03,28,09,43,7.50
2013,03,28,09,44,7.60
2013,03,28,09,45,7.60
2013,03,28,09,46,7.60
2013,03,28,09,47,7.70
2013,03,28,09,48,7.70
2013,03,28,09,49,7.70
2013,03,28,09,50,7.80
2013,03,28,09,51,7.80
2013,03,28,09,52,7.80
2013,03,28,09,53,7.80
2013,03,28,09,54,7.90
2013,03,28,09,55,7.90
2013,03,28,09,56,8.00
2013,03,28,09,57,8.00
2013,03,28,09,58,8.10
2013,03,28,09,59,8.10
2013,03,28,10,00,8.20
2013,03,28,10,01,8.20
2013,03,28,10,02,8.20
2013,03,28,10,03,8.30
2013,03,28,10,04,8.30
2013,03,28,10,05,8.30
2013,03,28,10,06,8.40
2013,03,28,10,07,8.40
2013,03,28,10,08,8.50
2013,03,28,10,09,8.50
2013,03,28,10,10,8.50
2013,03,28,10,11,8.60
2013,03,28,10,12,8.60
2013,03,28,10,13,8.60
2013,03,28,10,14,8.60
2013,03,28,10,15,8.60
2013,03,28,10,16,8.70
2013,03,28,10,17,8.70
2013,03,28,10,18,8.70
2013,03,28,10,19,8.80
2013,03,28,10,20,8.80
2013,03,28,10,21,8.90
2013,03,28,10,22,8.90
2013,03,28,10,23,8.90
2013,03,28,10,24,9.00
2013,03,28,10,25,9.00
2013,03,28,10,26,9.00
2013,03,28,10,27,9.10
2013,03,28,10,28,9.20
2013,03,28,10,29,9.20
2013,03,28,10,30,9.20
2013,03,28,10,31,9.20
2013,03,28,10,32,9.30
2013,03,28,10,33,9.30
2013,03,28,10,34,9.30
2013,03,28,10,35,9.30
2013,03,28,10,36,9.30
2013,03,28,10,37,9.40
2013,03,28,10,38,9.40
2013,03,28,10,39,9.30
2013,03,28,10,40,9.30
2013,03,28,10,41,9.30
2013,03,28,10,42,9.30
2013,03,28,10,43,9.30
2013,03,28,10,44,9.30
2013,03,28,10,45,9.40
2013,03,28,10,46,9.40
2013,03,28,10,47,9.40
2013,03,28,10,48,9.40
2013,03,28,10,49,9.40
2013,03,28,10,50,9.40
2013,03,28,10,51,9.50
2013,03,28,10,52,9.50
2013,03,28,10,53,9.60
2013,03,28,10,54,9.60
2013,03,28,10,55,9.70
2013,03,28,10,56,9.70
2013,03,28,10,57,9.80
2013,03,28,10,58,9.90
2013,03,28,10,59,10.00
2013,03,28,11,00,10.10
2013,03,28,11,01,10.10
2013,03,28,11,02,10.20
2013,03,28,11,03,10.30
2013,03,28,11,04,10.30
2013,03,28,11,05,10.30
2013,03,28,11,06,10.30
2013,03,28,11,07,10.20
2013,03,28,11,08,10.20
2013,03,28,11,09,10.20
2013,03,28,11,10,10.20
2013,03,28,11,11,10.20
2013,03,28,11,12,10.20
2013,03,28,11,13,10.20
2013,03,28,11,14,10.20
2013,03,28,11,15,10.10
2013,03,28,11,16,10.10
2013,03,28,11,17,10.10
2013,03,28,11,18,10.10
2013,03,28,11,19,10.10
2013,03,28,11,20,10.10
2013,03,28,11,21,10.10
2013,03,28,11,22,10.20
2013,03,28,11,23,10.20
2013,03,28,11,24,10.20
2013,03,28,11,25,10.20
2013,03,28,11,26,10.20
2013,03,28,11,27,10.20
2013,03,28,11,28,10.20
2013,03,28,11,29,10.30
2013,03,28,11,30,10.30
2013,03,28,11,31,10.40
2013,03,28,11,32,10.40
2013,03,28,11,33,10.40
2013,03,28,11,34,10.40
2013,03,28,11,35,10.40
2013,03,28,11,36,10.40
2013,03,28,11,37,10.40
2013,03,28,11,38,10.50
2013,03,28,11,39,10.60
2013,03,28,11,40,10.60
2013,03,28,11,41,10.60
2013,03,28,11,42,10.60
2013,03,28,11,43,10.60
2013,03,28,11,44,10.50
2013,03,28,11,45,10.40
2013,03,28,11,46,10.40
2013,03,28,11,47,10.40
2013,03,28,11,48,10.40
2013,03,28,11,49,10.30
2013,03,28,11,50,10.30
2013,03,28,11,51,10.40
2013,03,28,11,52,10.40
2013,03,28,11,53,10.40
2013,03,28,11,54,10.40
2013,03,28,11,55,10.40
2013,03,28,11,56,10.40
2013,03,28,11,57,10.40
2013,03,28,11,58,10.40
2013,03,28,11,59,10.50
2013,03,28,12,00,10.60
2013,03,28,12,01,10.60
2013,03,28,12,02,10.60
2013,03,28,12,03,10.60
2013,03,28,12,04,10.60
2013,03,28,12,05,10.60
2013,03,28,12,06,10.60
2013,03,28,12,07,10.50
2013,03,28,12,08,10.40
2013,03,28,12,09,10.40
2013,03,28,12,10,10.40
2013,03,28,12,11,10.40
2013,03,28,12,12,10.40
2013,03,28,12,13,10.40
2013,03,28,12,14,10.30
2013,03,28,12,15,10.30
2013,03,28,12,16,10.20
2013,03,28,12,17,10.10
2013,03,28,12,18,10.10
2013,03,28,12,19,10.10
2013,03,28,12,20,10.10
2013,03,28,12,21,10.10
2013,03,28,12,22,10.10
2013,03,28,12,23,10.10
2013,03,28,12,24,10.10
2013,03,28,12,25,10.10
2013,03,28,12,26,10.10
2013,03,28,12,27,10.20
2013,03,28,12,28,10.20
2013,03,28,12,29,10.20
2013,03,28,12,30,10.20
2013,03,28,12,31,10.20
2013,03,28,12,32,10.30
2013,03,28,12,33,10.30
2013,03,28,12,34,10.30
2013,03,28,12,35,10.30
2013,03,28,12,36,10.30
2013,03,28,12,37,10.30
2013,03,28,12,38,10.30
2013,03,28,12,39,10.20
2013,03,28,12,40,10.20
2013,03,28,12,41,10.20
2013,03,28,12,42,10.20
2013,03,28,12,43,10.30
2013,03,28,12,44,10.30
2013,03,28,12,45,10.30
2013,03,28,12,46,10.40
2013,03,28,12,47,10.40
2013,03,28,12,48,10.40
2013,03,28,12,49,10.50
2013,03,28,12,50,10.60
2013,03,28,12,51,10.60
2013,03,28,12,52,10.60
2013,03,28,12,53,10.60
2013,03,28,12,54,10.70
2013,03,28,12,55,10.60
2013,03,28,12,56,10.60
2013,03,28,12,57,10.60
2013,03,28,12,58,10.60
2013,03,28,12,59,10.60
2013,03,28,13,00,10.70
2013,03,28,13,01,10.70
2013,03,28,13,02,10.70
2013,03,28,13,03,10.80
2013,03,28,13,04,10.80
2013,03,28,13,05,10.90
2013,03,28,13,06,10.90
2013,03,28,13,07,10.90
2013,03,28,13,08,10.90
2013,03,28,13,09,11.00
2013,03,28,13,10,11.10
2013,03,28,13,11,11.10
2013,03,28,13,12,11.10
2013,03,28,13,13,11.10
2013,03,28,13,14,11.10
2013,03,28,13,15,11.10
2013,03,28,13,16,11.10
2013,03,28,13,17,11.00
2013,03,28,13,18,11.00
2013,03,28,13,19,11.10
2013,03,28,13,20,11.10
2013,03,28,13,21,11.10
2013,03,28,13,22,11.10
2013,03,28,13,23,11.10
2013,03,28,13,24,11.10
2013,03,28,13,25,11.20
2013,03,28,13,26,11.30
2013,03,28,13,27,11.40
2013,03,28,13,28,11.40
2013,03,28,13,29,11.40
2013,03,28,13,30,11.40
2013,03,28,13,31,11.40
2013,03,28,13,32,11.40
2013,03,28,13,33,11.40
2013,03,28,13,34,11.40
2013,03,28,13,35,11.60
2013,03,28,13,36,11.60
2013,03,28,13,37,11.60
2013,03,28,13,38,11.60
2013,03,28,13,39,11.60
2013,03,28,13,40,11.60
2013,03,28,13,41,11.70
2013,03,28,13,42,11.70
2013,03,28,13,43,11.80
2013,03,28,13,44,11.80
2013,03,28,13,45,11.70
2013,03,28,13,46,11.70
2013,03,28,13,47,11.60
2013,03,28,13,48,11.60
2013,03,28,13,49,11.60
2013,03,28,13,50,11.60
2013,03,28,13,51,11.60
2013,03,28,13,52,11.60
2013,03,28,13,53,11.60
2013,03,28,13,54,11.60
2013,03,28,13,55,11.60
2013,03,28,13,56,11.70
2013,03,28,13,57,11.70
2013,03,28,13,58,11.80
2013,03,28,13,59,11.80
2013,03,28,14,00,11.80
2013,03,28,14,01,11.80
2013,03,28,14,02,11.80
2013,03,28,14,03,11.80
2013,03,28,14,04,11.80
2013,03,28,14,05,11.80
2013,03,28,14,06,11.80
2013,03,28,14,07,11.80
2013,03,28,14,08,11.80
2013,03,28,14,09,11.80
2013,03,28,14,10,11.80
2013,03,28,14,11,11.80
2013,03,28,14,12,11.90
2013,03,28,14,13,11.90
2013,03,28,14,14,12.00
2013,03,28,14,15,12.10
2013,03,28,14,16,12.10
2013,03,28,14,17,12.20
2013,03,28,14,18,12.20
2013,03,28,14,19,12.20
2013,03,28,14,20,12.30
2013,03,28,14,21,12.30
2013,03,28,14,22,12.30
2013,03,28,14,23,12.30
2013,03,28,14,24,12.30
2013,03,28,14,25,12.20
2013,03,28,14,26,12.10
2013,03,28,14,27,12.10
2013,03,28,14,28,12.10
2013,03,28,14,29,12.10
2013,03,28,14,30,12.00
2013,03,28,14,31,12.00
2013,03,28,14,32,12.00
2013,03,28,14,33,12.10
2013,03,28,14,34,12.10
2013,03,28,14,35,12.10
2013,03,28,14,36,12.20
2013,03,28,14,37,12.20
2013,03,28,14,38,12.20
2013,03,28,14,39,12.20
2013,03,28,14,40,12.20
2013,03,28,14,41,12.20
2013,03,28,14,42,12.20
2013,03,28,14,43,12.30
2013,03,28,14,44,12.30
2013,03,28,14,45,12.30
2013,03,28,14,46,12.40
2013,03,28,14,47,12.40
2013,03,28,14,48,12.50
2013,03,28,14,49,12.50
2013,03,28,14,50,12.60
2013,03,28,14,51,12.60
2013,03,28,14,52,12.60
2013,03,28,14,53,12.60
2013,03,28,14,54,12.60
2013,03,28,14,55,12.70
2013,03,28,14,56,12.70
2013,03,28,14,57,12.70
2013,03,28,14,58,12.60
2013,03,28,14,59,12.60
2013,03,28,15,00,12.60
2013,03,28,15,01,12.60
2013,03,28,15,02,12.60
2013,03,28,15,03,12.60
2013,03,28,15,04,12.50
2013,03,28,15,05,12.50
2013,03,28,15,06,12.50
2013,03,28,15,07,12.60
2013,03,28,15,08,12.60
2013,03,28,15,09,12.50
2013,03,28,15,10,12.60
2013,03,28,15,11,12.70
2013,03,28,15,12,12.70
2013,03,28,15,13,12.80
2013,03,28,15,14,12.80
2013,03,28,15,15,13.00
2013,03,28,15,16,13.10
2013,03,28,15,17,13.20
2013,03,28,15,18,13.30
2013,03,28,15,19,13.30
2013,03,28,15,20,13.40
2013,03,28,15,21,13.50
2013,03,28,15,22,13.40
2013,03,28,15,23,13.40
2013,03,28,15,24,13.50
2013,03,28,15,25,13.60
2013,03,28,15,26,13.60
2013,03,28,15,27,13.70
2013,03,28,15,28,13.70
2013,03,28,15,29,13.70
2013,03,28,15,30,13.70
2013,03,28,15,31,13.70
2013,03,28,15,32,13.70
2013,03,28,15,33,13.70
2013,03,28,15,34,13.70
2013,03,28,15,35,13.70
2013,03,28,15,36,13.70
2013,03,28,15,37,13.70
2013,03,28,15,38,13.70
2013,03,28,15,39,13.70
2013,03,28,15,40,13.70
2013,03,28,15,41,13.70
2013,03,28,15,42,13.60
2013,03,28,15,43,13.60
2013,03,28,15,44,13.50
2013,03,28,15,45,13.50
2013,03,28,15,46,13.60
2013,03,28,15,47,13.60
2013,03,28,15,48,13.60
2013,03,28,15,49,13.60
2013,03,28,15,50,13.50
2013,03,28,15,51,13.50
2013,03,28,15,52,13.50
2013,03,28,15,53,13.60
2013,03,28,15,54,13.50
2013,03,28,15,55,13.60
2013,03,28,15,56,13.60
2013,03,28,15,57,13.60
2013,03,28,15,58,13.60
2013,03,28,15,59,13.70
2013,03,28,16,00,13.70
2013,03,28,16,01,13.70
2013,03,28,16,02,13.70
2013,03,28,16,03,13.80
2013,03,28,16,04,13.80
2013,03,28,16,05,13.80
2013,03,28,16,06,13.80
2013,03,28,16,07,13.90
2013,03,28,16,08,13.80
2013,03,28,16,09,13.80
2013,03,28,16,10,13.70
2013,03,28,16,11,13.70
2013,03,28,16,12,13.70
2013,03,28,16,13,13.70
2013,03,28,16,14,13.70
2013,03,28,16,15,13.70
2013,03,28,16,16,13.60
2013,03,28,16,17,13.60
2013,03,28,16,18,13.50
2013,03,28,16,19,13.50
2013,03,28,16,20,13.50
2013,03,28,16,21,13.40
2013,03,28,16,22,13.40
2013,03,28,16,23,13.50
2013,03,28,16,24,13.60
2013,03,28,16,25,13.60
2013,03,28,16,26,13.70
2013,03,28,16,27,13.70
2013,03,28,16,28,13.70
2013,03,28,16,29,13.60
2013,03,28,16,30,13.50
2013,03,28,16,31,13.50
2013,03,28,16,32,13.40
2013,03,28,16,33,13.40
2013,03,28,16,34,13.50
2013,03,28,16,35,13.50
2013,03,28,16,36,13.50
2013,03,28,16,37,13.50
2013,03,28,16,38,13.50
2013,03,28,16,39,13.60
2013,03,28,16,40,13.60
2013,03,28,16,41,13.60
2013,03,28,16,42,13.60
2013,03,28,16,43,13.60
2013,03,28,16,44,13.60
2013,03,28,16,45,13.70
2013,03,28,16,46,13.70
2013,03,28,16,47,13.70
2013,03,28,16,48,13.80
2013,03,28,16,49,13.90
2013,03,28,16,50,13.90
2013,03,28,16,51,13.90
2013,03,28,16,52,14.00
2013,03,28,16,53,14.00
2013,03,28,16,54,14.00
2013,03,28,16,55,14.10
2013,03,28,16,56,14.10
2013,03,28,16,57,14.10
2013,03,28,16,58,14.10
2013,03,28,16,59,14.10
2013,03,28,17,00,14.20
2013,03,28,17,01,14.20
2013,03,28,17,02,14.20
2013,03,28,17,03,14.20
2013,03,28,17,04,14.20
2013,03,28,17,05,14.20
2013,03,28,17,06,14.10
2013,03,28,17,07,14.10
2013,03,28,17,08,14.00
2013,03,28,17,09,14.00
2013,03,28,17,10,13.90
2013,03,28,17,11,13.90
2013,03,28,17,12,13.90
2013,03,28,17,13,13.80
2013,03,28,17,14,13.80
2013,03,28,17,15,13.70
2013,03,28,17,16,13.70
2013,03,28,17,17,13.60
2013,03,28,17,18,13.50
2013,03,28,17,19,13.50
2013,03,28,17,20,13.40
2013,03,28,17,21,13.30
2013,03,28,17,22,13.20
2013,03,28,17,23,13.10
2013,03,28,17,24,13.10
2013,03,28,17,25,13.00
2013,03,28,17,26,13.00
2013,03,28,17,27,12.90
2013,03,28,17,28,12.80
2013,03,28,17,29,12.80
2013,03,28,17,30,12.70
2013,03,28,17,31,12.70
2013,03,28,17,32,12.70
2013,03,28,17,33,12.60
2013,03,28,17,34,12.60
2013,03,28,17,35,12.60
2013,03,28,17,36,12.60
2013,03,28,17,37,12.60
2013,03,28,17,38,12.60
2013,03,28,17,39,12.60
2013,03,28,17,40,12.50
2013,03,28,17,41,12.50
2013,03,28,17,42,12.40
2013,03,28,17,43,12.40
2013,03,28,17,44,12.40
2013,03,28,17,45,12.40
2013,03,28,17,46,12.30
2013,03,28,17,47,12.30
2013,03,28,17,48,12.30